User: anonymous   Login
Location: Churchill
(58.7670°N, 94.1670°W)
Time: 08:40:33
(UTC-05:00)
Language:

Cosmos 1315 Rocket - Orbit

View from above orbital plane
View from above orbital plane
View from above satellite
View from above satellite

Ground track
Ground track

The orbit data is extracted from the following two-line orbital elements,

1 12904U 81103B   16121.79767887  .00000677  00000-0  45886-4 0  9994
2 12904  81.1791  26.4132 0028447 344.6197  15.4158 15.04892410430793
Epoch (UTC): 30 April 2016 19:08:39
Eccentricity: 0.0028447
inclination: 81.1791°
perigee height: 532 km
apogee height: 571 km
right ascension of ascending node: 26.4132°
argument of perigee: 344.6197°
revolutions per day: 15.04892410
mean anomaly at epoch: 15.4158°
orbit number at epoch: 43079

The dashed part of the orbit path shows where the satellite is in the earth's shadow,  

DLR